Location: Darvault
(48.2697°N, 2.7308°E)
Time: 15:07:18
(UTC+00:00)

ISS - Pass Details

Date: 22 October 2025
Orbit: 415 x 420 km, 51.6° (Epoch: 16 November)

Event Time Altitude Azimuth Distance (km) Brightness Sun altitude
Exits shadow 05:01:09 27° 273° (W) 852 -2.8 -13.7°
Maximum altitude 05:02:48 61° 345° (NNW) 485 -3.6 -13.4°
Drops below altitude 10° 05:06:10 10° 67° (ENE) 1,510 0.1 -12.8°
Sets 05:08:17 0° 71° (ENE) 2,378 1.5 -12.5°
